Regional Weather Roundup
Issued by NWS Northern Indiana

Home | Current Version | Previous Version | Graphics & Text | Print | Product List | Glossary On
Versions: 1 2 3 4 5 6 7 8 9 10 11 12 13 14 15 16 17 18 19 20 21 22 23 24 25 26 27 28 29 30 31 32 33 34 35 36 37 38 39 40 41 42 43 44 45 46 47 48 49 50
000
ASUS43 KIWX 240510
RWRIWX

KIWX WEATHER ROUNDUP
NATIONAL WEATHER SERVICE NORTHERN INDIANA
100 AM EDT SUN JUL 24 2016

NOTE: "FAIR" INDICATES FEW OR NO CLOUDS BELOW 12,000 FEET WITH NO
SIGNIFICANT WEATHER AND/OR OBSTRUCTIONS TO VISIBILITY.

* THESE STATIONS ARE NOT UNDER NWS QUALITY CONTROL. THEY ALSO MAY NOT
  REPORT WEATHER SUCH AS PRECIPITATION OR FOG.

INZ001>027-240600-
NORTHERN INDIANA

CITY           SKY/WX    TMP DP  RH WIND       PRES   REMARKS
GARY*          RAIN      71  71 100 SW3       30.04R
VALPARAISO     TSTM      70  68  93 NW13      30.04R
MICHIGAN CITY* HVY RAIN  70  70 100 W5        30.01R
LAPORTE*       HVY RAIN  75  75 100 W15G23    30.03R
KNOX*          CLOUDY    73  68  83 W5        29.98R
SOUTH BEND     CLOUDY    74  73  97 NW13      29.99R
MONTICELLO*    CLOUDY    78  73  85 CALM      29.98R
LOGANSPORT*    CLOUDY    77  73  88 SW3       30.00R
ROCHESTER*     MOCLDY    82  79  89 SW5       30.00R
WARSAW*        CLOUDY    79  75  89 CALM      29.97S
ANGOLA*          N/A     77  70  78 CALM      29.97R
FORT WAYNE     CLOUDY    78  74  87 S5        29.97F
HUNTINGTON*    MOCLDY   N/A N/A N/A CALM      29.97S
PERU/GRISSOM   PTCLDY    76  76  99 SW3       29.98R
MARION*        PTCLDY    74  72  92 S3        29.99S

$$
INZ028>050-240600-
CENTRAL INDIANA

CITY           SKY/WX    TMP DP  RH WIND       PRES   REMARKS
LAFAYETTE      MOCLDY    77  76  96 CALM      29.98R
KOKOMO*        CLOUDY    75  70  83 S3        29.99R
MUNCIE*        CLOUDY    81  74  79 S7        29.99F
INDIANAPOLIS   PTCLDY    79  73  82 S8        29.99F

$$
MIZ043>046-050>051-056>058-064>065-071>073-077>080-240600-
SOUTHWEST LOWER MICHIGAN

CITY           SKY/WX    TMP DP  RH WIND       PRES   REMARKS
BATTLE CREEK   CLOUDY    78  67  68 SE5       29.96F
BENTON HARBOR  LGT RAIN  74  70  87 CALM      29.97R
COLDWATER*     LGT RAIN  77  70  80 CALM      29.97R
HOLLAND        LGT RAIN  73  69  87 SW7       29.98R
GRAND RAPIDS   CLOUDY    79  71  76 W12       29.96R
KALAMAZOO      CLOUDY    76  72  87 W6        29.97R
STURGIS*       CLOUDY    76  72  87 S3        29.96S
THREE RIVERS*  FAIR      77  73  88 CALM      29.96R

$$
OHZ001>008-015>018-024>025-240600-
NORTHWEST OHIO

CITY           SKY/WX    TMP DP  RH WIND       PRES   REMARKS
WAUSEON*       FAIR      75  72  88 CALM      29.96F
DEFIANCE       MOCLDY    80  69  69 S5        29.96F
FINDLAY        PTCLDY    78  70  76 CALM      29.98F
TOLEDO EXPRESS CLOUDY    75  73  93 SE5       29.96F
TOLEDO METCALF CLOUDY    79  69  71 CALM      29.98S
LIMA           PTCLDY    76  73  91 CALM      30.00F

$$
AND FOR LAKE MICHIGAN COASTAL AND OPEN LAKE BUOY OBSERVATIONS

STATION/POSITION TEMP    WIND        PRES    VSBY  WAVE
                 AIR SEA DIR/SP/G                  HT/PER
                 (F)     (DEG/KT/KT) (MB)    (MI)  (FT/S)
CALUMET HARBOR    71     160/  5/  9 1015.6
MICHIGAN CITY     75     120/  3/  4   N/A
BURNS HARBOR      71     210/ 13     1016.9R
SAINT JOSEPH      74      50/  2/  6 1014.9F
SOUTH LAKE BUOY   74 73  180/ 10/ 12 1013.3F         1/ 3
4 MI NW BRIDGMAN  74 76  360/ 10/ 14 1014.2F         2/ 2
MICHIGAN CITY     75 73  240/  6/ 16   N/A           2/ 5

$$
&&



USA.gov is the U.S. government's official web portal to all federal, state and local government web resources and services.